User: anonymous   Login
Location: Brno
(49.2000°N, 16.6330°E)
Time: 10:26:21
(UTC+02:00)
Language:

Cosmos 1459 Rocket - Orbit

View from above orbital plane
View from above orbital plane
View from above satellite
View from above satellite

Ground track
Ground track

The orbit data is extracted from the following two-line orbital elements,

1 14059U 83042B   16237.21907021  .00000074  00000-0  57146-4 0  9995
2 14059  82.9704 282.3438 0043067  22.8099  41.2444 13.78561627674845
Epoch (UTC): 24 August 2016 05:15:27
Eccentricity: 0.0043067
inclination: 82.9704°
perigee height: 937 km
apogee height: 1000 km
right ascension of ascending node: 282.3438°
argument of perigee: 22.8099°
revolutions per day: 13.78561627
mean anomaly at epoch: 41.2444°
orbit number at epoch: 67484

The dashed part of the orbit path shows where the satellite is in the earth's shadow,  

DLR